Location: ???? ???????????
(44.0119°N, 135.1007°E)
Time: 06:52:12
(UTC+00:00)

Daily predictions for brighter satellites

Satellite Brightness Start Highest point End
(mag) Time Altitude Azimuth Time Altitude Azimuth Time Altitude Azimuth
CZ-4B R/B 4.2 12:00:01 10° SSW 12:03:12 31° W 12:06:33 10° NNW
Cosmos 1340 Rocket 3.4 12:01:00 10° NNW 12:04:45 53° W 12:08:21 11° S
SAR-Lupe-2 4.1 12:03:37 21° SE 12:05:38 44° ENE 12:09:05 10° N
TSX-5 3.3 12:03:21 10° NNW 12:06:29 73° WSW 12:08:32 22° SSE
Terra 2.4 12:05:52 10° S 12:10:28 54° W 12:15:06 10° NNW
Spot 2 Rocket 3.5 12:06:48 14° SSE 12:11:11 84° WSW 12:16:18 10° NNW
Okean 1 Rocket 3.2 12:07:12 10° N 12:11:30 56° E 12:14:06 22° SSE
IRS-1C Rocket 4.1 12:07:31 17° SSE 12:11:32 72° ENE 12:16:47 10° N
Cosmos 2221 Rocket 3.6 12:08:45 13° S 12:12:38 67° E 12:17:08 10° NNE
Cosmos 1869 3.1 12:10:27 10° NNW 12:14:00 72° W 12:16:27 19° S
Meteor 1-21 Rocket 4.3 12:09:51 10° SSW 12:15:31 79° W 12:21:08 10° N
Meteor 2-12 Rocket 4.4 12:09:51 10° S 12:15:58 75° E 12:22:07 10° NNE
Cosmos 1818 3.6 12:10:51 10° NNW 12:16:18 71° NE 12:19:50 22° SE
ISS -1.4 12:14:02 10° NW 12:16:45 22° N 12:19:29 10° ENE
Cosmos 2297 4.1 12:12:44 10° SW 12:18:21 68° WNW 12:24:01 10° NNE
Helios 1A 3.6 12:15:40 10° N 12:19:31 53° WNW 12:23:21 10° SSW
Meteor 1-11 4.3 12:14:50 12° S 12:20:16 68° E 12:26:01 10° NNE
Helios 1B rocket 4.1 12:19:20 10° SSW 12:22:26 25° W 12:25:33 10° NW
Cosmos 1455 Rocket 3.9 12:19:27 10° N 12:23:25 34° ENE 12:25:09 25° ESE
ERS-1 Rocket 4.2 12:19:06 10° SSW 12:23:41 37° W 12:28:18 10° NNW
Tiangong -0.6 12:21:09 10° SW 12:23:01 23° S 12:23:01 23° S
Lacrosse 5 rocket 4.2 12:23:43 10° NNW 12:25:22 12° N 12:27:02 10° NNE
Meteor 2-1 Rocket 4.4 12:20:41 10° N 12:26:27 59° ENE 12:29:50 24° SSE
Sich 1 Rocket 3.6 12:23:27 10° N 12:28:03 86° W 12:30:53 23° S
Cosmos 1674 Rocket 4.3 12:28:41 10° SSW 12:32:59 51° WNW 12:37:19 10° N
USA 245 4.2 12:30:59 16° S 12:34:09 45° WSW 12:37:38 10° NNW
Cosmos 990 Rocket 4.0 12:33:24 10° SSW 12:38:34 85° WNW 12:43:48 10° NNE
Cosmos 1900 4.4 12:36:13 15° SSW 12:40:16 57° ESE 12:45:16 10° NE
Aureole 1 Rocket 4.3 12:41:00 21° S 12:45:18 57° ESE 12:52:30 10° NNE
Cosmos 1515 3.6 12:44:42 10° N 12:46:48 38° NE 12:46:48 38° NE
Okean O Rocket 4.1 12:48:16 10° SW 12:50:49 15° W 12:53:23 10° NW
Cosmos 2369 Rocket 3.6 12:49:11 10° SW 12:54:29 39° WNW 12:59:48 10° NNE
Cosmos 1025 Rocket 3.9 12:51:03 13° SSW 12:54:41 47° WNW 12:58:54 10° N
Cosmos 372 Rocket 3.9 12:56:02 32° S 12:58:12 60° ESE 13:03:12 10° NNE
CZ-4C R/B 2.0 12:55:47 10° SW 12:59:58 70° NW 13:05:19 10° NE
Cosmos 1627 Rocket 4.4 12:59:18 28° S 13:02:39 73° E 13:08:45 10° NNE
PSLV R/B 3.9 13:05:04 42° SW 13:05:30 46° W 13:08:32 10° NNW
Cosmos 2297 Rocket 3.8 13:02:51 10° N 13:07:27 25° NE 13:10:38 16° E
Cosmos 1812 3.2 13:07:17 10° NNW 13:10:15 37° W 13:10:43 35° WSW
BlueWalker 3 3.9 13:07:58 10° NW 13:11:04 25° NNE 13:13:43 12° ENE
DELTA 2 R/B (1) 3.6 13:07:53 10° WSW 13:13:14 51° S 13:15:13 35° ESE
Cosmos 1544 Rocket 4.3 13:09:48 10° N 13:13:52 37° ENE 13:14:33 34° E
DELTA 2 DEB (DPAF) 3.9 13:10:25 10° NNE 13:14:14 52° E 13:14:22 52° ESE
Ariane Rocket 4.0 13:12:30 22° SSW 13:15:14 39° W 13:19:58 10° NNW
Cosmos 1937 Rocket 3.5 13:14:09 43° SSE 13:15:27 56° ESE 13:20:27 10° NNE
RESURS DK-1 3.8 13:16:11 10° N 13:19:35 26° NE 13:20:30 24° ENE
Cosmos 1680 Rocket 4.4 13:14:40 10° N 13:19:36 39° ENE 13:21:26 29° ESE
COBE Rocket 4.4 13:16:41 10° N 13:21:11 52° WNW 13:23:54 22° SW
Cosmos 1697 Rocket 4.5 13:21:56 16° E 13:21:56 16° E 13:24:47 10° ENE
CZ-4C R/B 4.2 13:18:16 10° NNE 13:21:06 33° ENE 13:21:06 33° ENE
Cosmos 2285 Rocket 4.4 13:15:58 10° SSW 13:22:16 64° WNW 13:28:40 10° NNE
Cosmos 923 Rocket 4.1 13:25:44 10° NNW 13:30:54 64° ENE 13:32:18 45° SE
Meteor 2-20 4.4 13:25:12 10° N 13:31:21 72° E 13:33:31 42° SSE
Cosmos 2026 Rocket 4.2 13:29:48 25° SSW 13:33:23 64° W 13:39:25 10° N
Cosmos 2098 Rocket 2.4 13:30:28 10° N 13:33:37 82° N 13:33:37 82° N
Cosmos 1400 Rocket 3.4 13:31:19 10° N 13:34:49 40° ENE 13:34:49 40° ENE
ALOS 2 3.9 13:37:37 26° E 13:38:22 28° ENE 13:42:06 10° N
Cosmos 2227 Rocket 4.1 13:35:45 10° N 13:40:04 21° NE 13:43:32 13° E
Gbstr 26 Del rocket 4.3 13:35:03 10° NW 13:40:18 56° NNE 13:45:24 16° E
BREEZE-M DEB (TANK) 4.3 13:32:10 10° W 13:40:40 46° NNW 13:43:44 10° ENE
Cosmos 1782 4.2 13:40:43 10° NNE 13:43:29 25° ENE 13:43:29 25° ENE
Cosmos 1867 3.9 13:40:14 15° SW 13:44:48 65° NW 13:50:15 10° NNE
MetOp-A 3.6 13:46:42 51° ENE 13:46:42 51° ENE 13:50:17 10° N
Helios 1B 4.4 13:42:56 10° NNE 13:47:14 84° WNW 13:47:46 67° SSW
BREEZE M DEB (TANK) 3.5 13:45:40 10° W 13:48:24 36° WNW 13:48:24 36° WNW
Cosmos 1975 Rocket 4.1 13:48:30 29° WSW 13:50:00 39° WNW 13:54:03 10° N
Cosmos 1553 Rocket 3.9 13:44:20 10° N 13:50:40 88° E 13:52:46 45° S
ISS -2.9 13:50:41 10° NW 13:53:32 48° N 13:53:32 48° N
Cosmos 1898 Rocket 4.4 13:55:38 22° SW 13:58:43 46° WNW 14:03:47 10° N
SL-08 ROCKET BODY 4.3 13:58:13 50° S 13:59:50 78° E 14:05:45 10° N
Cosmos 2228 3.5 13:57:05 10° NNW 14:01:09 47° W 14:01:29 46° WSW
Lacrosse 5 rocket 3.9 14:01:22 10° NNW 14:04:06 18° NNE 14:06:49 10° ENE
Spot 4 3.8 14:06:26 63° ESE 14:07:02 72° ENE 14:11:50 10° N
USA 215 4.0 14:01:35 10° E 14:07:47 50° NNE 14:14:02 10° NW
Cosmos 1417 Rocket 4.4 14:03:45 10° N 14:09:54 72° E 14:11:29 51° SSE
S3M 4.1 14:05:07 10° N 14:11:24 63° E 14:13:04 47° SE
CZ-2C R/B 3.9 14:07:58 10° N 14:12:40 68° WNW 14:13:30 55° SW
Cosmos 1656 4.0 14:20:24 36° SW 14:22:36 62° WNW 14:28:06 10° NNE
Meteor 2-20 Rocket 4.5 14:17:27 10° NNW 14:23:24 64° W 14:24:47 49° SSW
ARIANE 5 R/B 2.9 14:23:40 56° WSW 14:23:45 56° W 14:28:08 10° NNW
Cosmos 1655 Rocket 4.3 14:25:03 45° SE 14:26:28 53° E 14:32:38 10° NNE
Cosmos 2263 Rocket 3.9 14:23:41 10° N 14:28:19 25° NE 14:31:39 15° E
Landsat 5 3.6 14:27:00 10° N 14:30:15 60° NNW 14:30:15 60° NNW
Cosmos 1536 Rocket 4.4 14:43:18 40° W 14:43:39 41° WNW 14:47:50 10° N
Cosmos 1315 Rocket 3.9 14:41:11 10° N 14:44:20 35° ENE 14:44:20 35° ENE
EO 1 Delta rocket 3.8 14:47:22 65° ESE 14:47:43 68° ENE 14:52:41 10° N
BlueWalker 3 3.3 14:45:28 10° NW 14:47:34 32° NW 14:47:34 32° NW
Cosmos 2297 Rocket 2.3 14:46:18 10° NNW 14:51:52 59° WSW 14:52:24 56° SW
Cosmos 1933 3.8 14:49:10 10° N 14:52:22 57° NNE 14:52:22 57° NNE
Cosmos 1606 Rocket 3.8 14:49:53 10° NNW 14:53:56 59° WNW 14:53:56 59° WNW
RESURS DK-1 4.0 14:53:35 10° NW 14:55:50 24° WNW 14:55:50 24° WNW
Cosmos 1980 Rocket 2.6 14:59:45 45° ESE 14:59:59 45° ESE 15:05:18 10° NE
Cosmos 2058 4.3 15:03:51 27° WNW 15:03:51 27° WNW 15:07:13 10° NNW
Cosmos 1697 Rocket 2.7 15:03:37 58° SW 15:04:45 78° WNW 15:10:27 10° NNE
CZ-2C R/B 3.8 15:09:35 27° ESE 15:11:43 37° ENE 15:16:48 10° N
Cosmos 468 4.5 15:07:58 10° NNW 15:13:19 77° ENE 15:14:04 64° SE
USA 290 4.4 15:11:05 10° N 15:13:24 22° NE 15:13:24 22° NE
ALOS 2 3.9 15:15:01 29° W 15:15:01 29° W 15:18:28 10° NW
Meteor 2-3 Rocket 3.7 15:15:27 62° SSW 15:16:29 85° W 15:22:18 10° N
PSLV R/B 4.5 15:12:11 10° N 15:16:37 43° WNW 15:17:12 41° W
Cosmos 1726 Rocket 4.2 15:13:10 10° NNW 15:17:29 48° W 15:17:29 48° W
Cosmos 2058 Rocket 3.0 15:13:59 10° N 15:18:18 83° NNE 15:18:18 83° NNE
GEOS 3 Rocket 4.3 15:19:18 10° NNE 15:24:22 50° NW 15:26:41 30° WSW
Cosmos 2227 Rocket 2.1 15:19:00 10° NNW 15:24:39 71° WSW 15:25:18 64° SSW
Gbstr 26 Del rocket 4.0 15:21:22 10° WNW 15:27:05 55° SW 15:27:23 54° SSW
SL-08 R/B 4.4 15:30:47 54° SSE 15:32:09 73° E 15:38:15 10° NNE
Cosmos 1125 Rocket 3.5 15:32:00 64° SW 15:32:43 76° WNW 15:38:00 10° NNE
Cosmos 1892 Rocket 4.5 15:34:30 37° WNW 15:34:30 37° WNW 15:38:31 10° N
Geosat 3.9 15:31:23 10° NNE 15:36:24 81° WNW 15:37:05 66° SW
Cosmos 1356 Rocket 4.5 15:34:40 10° NNW 15:37:41 35° WNW 15:37:41 35° WNW
Orbus 7S? 3.9 15:38:14 66° SW 15:38:56 87° NW 15:47:31 10° NE
Cosmos 2150 Rocket 4.3 15:39:58 51° SE 15:40:38 54° ESE 15:45:56 10° NNE
Cosmos 1602 Rocket 4.2 15:40:37 42° E 15:40:38 42° E 15:44:45 10° NNE
Lacrosse 5 rocket 1.6 15:38:12 10° NW 15:41:48 60° N 15:41:48 60° N
Cosmos 1758 Rocket 3.6 15:42:48 68° E 15:42:48 68° E 15:47:11 10° NNE
ATLAS 2AS CENTAUR R/B 2.8 15:36:56 10° NW 15:43:42 73° NE 15:47:45 26° SE
Cosmos 1626 Rocket 3.4 15:44:18 85° NNE 15:44:18 85° NNE 15:48:37 10° N
Cosmos 614 Rocket 3.8 15:40:35 10° NNW 15:45:40 88° ENE 15:46:16 70° SSE
ATLAS 5 CENTAUR R/B 4.1 15:45:48 10° N 15:49:10 21° NE 15:53:04 10° E
USA 215 3.2 15:48:54 46° S 15:50:41 62° SW 15:57:10 10° NW
Cosmos 192 4.1 15:50:17 75° SSW 15:50:42 89° WNW 15:55:38 10° NNE
Meteor 2-2 Rocket 4.3 15:46:54 10° NNW 15:52:28 62° W 15:53:19 55° SW
Meteor 1-26 Rocket 4.1 15:51:39 10° NNW 15:56:58 63° W 15:57:41 57° SW
Cosmos 921 Rocket 3.5 15:55:17 10° N 15:59:37 54° ENE 16:00:17 48° ESE
Cosmos 2151 3.5 16:00:38 45° E 16:00:44 45° E 16:04:41 10° NNE
Cosmos 2322 Rocket 4.0 15:59:12 16° ESE 16:00:57 18° E 16:04:37 10° ENE
Meteor 2-6 Rocket 4.3 15:55:46 10° N 16:01:37 76° E 16:03:30 45° SSE
USA 32 3.9 16:04:21 62° S 16:05:15 89° E 16:10:30 10° N
Cosmos-2242 4.0 16:04:36 10° NNW 16:08:00 34° WNW 16:08:00 34° WNW
Nimbus 7 Rocket 4.5 16:04:33 10° NNE 16:10:38 74° ESE 16:12:29 46° S
CZ-2C R/B 2.8 16:07:25 10° N 16:12:10 72° WNW 16:12:48 62° SW
Cosmos 2263 Rocket 2.2 16:07:05 10° NNW 16:12:35 56° WSW 16:13:16 53° SW
Cosmos 44 Rocket 4.2 16:12:26 32° ESE 16:12:38 32° ESE 16:16:49 10° NE
Cosmos 2298 Rocket 3.9 16:11:49 59° SSW 16:12:51 84° WNW 16:18:11 10° NNE
Okean 1 3.4 16:12:48 10° NNW 16:16:01 61° NW 16:16:01 61° NW
Cosmos 1238 Rocket 3.5 16:14:23 10° N 16:19:31 69° E 16:20:43 49° SE
Nadezhda 1 Rocket 3.9 16:13:54 10° N 16:20:06 76° W 16:22:00 46° S
Cosmos 2369 3.8 16:18:37 48° SW 16:20:09 70° WNW 16:25:49 10° NNE
Cosmos 1346 Rocket 3.6 16:20:41 37° E 16:20:43 37° E 16:24:09 10° NNE
Cosmos 2082 3.6 16:15:10 10° NNW 16:20:51 78° WSW 16:22:27 48° S
Cosmos 1745 Rocket 4.0 16:26:05 44° SSW 16:28:13 73° W 16:34:36 10° N
SL-16 R/B 2.5 16:30:10 40° SSE 16:31:52 55° ESE 16:37:25 10° NNE
Cosmos 2221 2.3 16:27:45 10° NNW 16:32:00 72° W 16:32:14 70° SW
H-2A R/B 3.6 16:28:58 10° NE 16:32:37 27° E 16:33:57 23° SE
H-2A R/B 2.8 16:34:44 45° WNW 16:34:44 45° WNW 16:38:04 10° NNW
MSX 4.0 16:29:48 10° NNE 16:35:30 62° ESE 16:37:44 37° SSE
Cosmos 2333 Rocket 3.2 16:33:42 28° SSE 16:35:47 37° ESE 16:40:58 10° NE
Cosmos 2219 3.5 16:31:18 10° NW 16:36:39 44° WSW 16:37:22 42° SW
Cosmos 1953 Rocket 4.1 16:37:39 40° SE 16:38:42 50° E 16:42:53 10° NNE
Cosmos 1709 Rocket 4.0 16:39:02 40° SSW 16:41:29 79° W 16:47:48 10° N
Cosmos 1140 Rocket 4.4 16:36:40 10° N 16:41:38 46° ENE 16:46:26 11° SE
CENTAUR R/B 2.7 16:41:21 38° S 16:43:09 53° ESE 16:49:36 10° NE
Cosmos 1980 Rocket 3.5 16:41:28 21° W 16:44:07 30° NW 16:49:02 10° N
Meteor 1-10 Rocket 4.2 16:38:43 10° N 16:44:31 89° ENE 16:47:14 34° S
Cosmos 1812 Rocket 4.1 16:41:06 10° NNW 16:45:12 41° W 16:45:18 41° W
NPP 3.7 16:43:27 10° NNE 16:48:51 72° ESE 16:50:59 38° S
CZ-2C R/B 3.5 16:51:02 32° WSW 16:51:55 33° W 16:56:57 10° NNW
Cosmos 2181 Rocket 4.3 16:46:47 10° N 16:52:52 62° E 16:57:21 19° SSE
Meteor 1-20 Rocket 4.2 16:51:56 39° SSW 16:54:14 84° W 17:00:00 10° N
Resurs 1-4 Rocket 3.0 16:49:49 10° NNE 16:54:50 41° E 16:57:45 22° SSE
Cosmos 1825 Rocket 3.7 16:55:54 49° WSW 16:56:42 59° W 17:01:02 10° N
Okean 1-7 Rocket 4.4 16:56:16 35° W 16:57:03 38° WNW 17:01:17 10° N
NOSS 3-2 (A) 4.3 16:56:24 22° SSE 16:58:24 29° ESE 17:03:09 10° NE
BREEZE M DEB (TANK) 3.8 16:50:18 10° W 17:01:30 57° NNW 17:04:57 10° ENE
Cosmos 1707 3.7 16:58:54 10° N 17:01:57 35° ENE 17:03:17 24° ESE
Cosmos 1743 2.2 17:02:03 69° W 17:02:05 69° W 17:05:26 10° N
SeaSat 1 3.3 16:59:11 10° SE 17:03:53 51° ENE 17:08:38 10° NNW
IDEFIX/ARIANE 42P 2.6 17:01:16 10° N 17:06:25 68° WNW 17:08:25 37° SW
Cosmos 1844 Rocket 2.7 17:02:41 10° NNW 17:08:20 85° ENE 17:13:32 12° SSE
OAO 3 Rocket 4.3 17:10:09 25° SSE 17:10:09 25° SSE 17:13:13 10° ESE
CZ-2D R/B 2.7 17:05:19 10° NNE 17:10:23 51° E 17:13:26 23° SSE
Cosmos 1844 3.7 17:08:59 10° NNW 17:14:44 86° ENE 17:20:29 10° SSE
Cosmos 2227 4.1 17:09:19 10° NNW 17:15:00 68° WSW 17:18:50 21° S
ALOS 3.3 17:13:17 10° NNE 17:17:34 38° E 17:20:32 18° SSE
KORONAS-FOTON 3.6 17:14:38 10° N 17:18:10 78° ENE 17:19:21 39° SSE
MOZ.5/SAFIR/RUBIN 5/SL-8 3.8 17:16:25 35° SSW 17:18:14 62° WSW 17:22:53 10° NNW
Cosmos 2360 Rocket 2.3 17:18:47 29° S 17:21:44 70° ESE 17:27:20 10° NNE
Cosmos 1269 Rocket 4.1 17:17:56 10° NNW 17:23:08 59° WSW 17:26:02 26° S
Cosmos 1842 3.1 17:22:03 10° N 17:25:27 67° E 17:27:00 29° SSE
Cosmos 2278 4.0 17:24:58 28° SW 17:27:49 56° WNW 17:33:23 10° NNE
H-2A R/B 4.2 17:27:46 10° NE 17:31:17 19° E 17:34:47 10° SE
ATLAS 5 CENTAUR R/B 1.8 17:27:41 10° NW 17:32:19 75° SW 17:38:05 10° SSE
ATLAS 2AS CENTAUR R/B 3.7 17:28:49 10° WNW 17:33:55 24° WSW 17:35:04 22° SW
Cosmos 1842 Rocket 3.6 17:30:27 10° NNW 17:34:47 62° W 17:36:54 28° SSW
Cosmos 1733 3.0 17:34:54 41° W 17:35:09 42° WNW 17:38:00 10° N
Cosmos 2219 Rocket 2.7 17:32:14 19° S 17:36:01 52° ESE 17:41:25 10° NE
Alouette 2 Rocket 4.2 17:35:55 25° SSW 17:38:50 85° WNW 17:46:05 10° NNE
ATLAS CENTAUR R/B 3.0 17:36:59 14° SSE 17:38:57 21° ESE 17:41:51 10° ENE
ADEOS II 2.3 17:34:10 10° NNE 17:39:23 67° ESE 17:43:19 18° S
Cosmos 2184 Rocket 4.0 17:37:13 20° S 17:41:47 83° W 17:48:13 10° N
Milstar 3 Cent rocket 4.1 17:42:09 16° S 17:42:47 17° S 17:46:18 10° SE
Cosmos 2251 Rocket 4.3 17:38:34 10° NNW 17:43:46 54° ENE 17:48:53 10° SE
Cosmos 2322 Rocket 2.3 17:41:00 25° SW 17:44:21 68° WNW 17:49:59 10° NNE
Envisat 3.3 17:41:56 10° NNE 17:47:00 66° ESE 17:51:08 15° S
USA 276 3.1 17:47:58 19° WNW 17:49:24 33° NNW 17:51:47 10° NE
Cosmos 1536 4.4 17:46:59 10° SSE 17:50:14 29° E 17:53:30 10° NNE
Cosmos 44 Rocket 4.3 17:51:01 18° WSW 17:53:58 35° NW 17:58:21 10° NNE
Cosmos 2154 Rocket 4.0 17:49:31 18° SSW 17:54:23 77° W 18:00:43 10° N
Delta 2 Rocket 4.4 17:55:05 24° SSW 17:56:03 26° S 17:59:35 10° SE
Cosmos 2056 Rocket 4.3 17:53:19 11° S 17:58:04 45° ESE 18:02:57 10° NNE
Cosmos 405 Rocket 3.5 17:56:48 12° SSE 17:59:32 38° E 18:02:34 10° NNE
SJ 16-02 3.9 17:57:26 10° N 18:00:50 22° ENE 18:04:13 10° ESE
Meteor 1-18 Rocket 4.1 17:56:43 10° NNW 18:02:18 82° W 18:07:51 10° S
SAR-Lupe-3 4.0 18:02:34 12° SSE 18:05:13 89° ENE 18:08:12 10° NNW
Cosmos 2074 Rocket 4.3 18:01:49 18° SSW 18:06:21 53° WNW 18:12:26 10° N
NOSS 2-2 (C) 3.7 18:04:44 18° S 18:06:54 40° ESE 18:09:47 10° NE
Cosmos 1151 Rocket 3.0 18:03:01 10° N 18:07:20 90° NNW 18:11:36 10° S
H-2A R/B 3.2 18:04:18 10° N 18:07:59 29° WNW 18:10:27 17° WSW
BREEZE M DEB (TANK) 3.2 18:06:44 10° WNW 18:09:44 70° SSW 18:18:00 10° SE
Meteor 2-10 4.0 18:05:21 13° S 18:10:05 89° ESE 18:15:12 10° N
Meteor 1-28 Rocket 4.3 18:07:38 10° SE 18:10:48 41° ENE 18:13:59 10° N
NOAA 11 4.3 18:06:13 10° N 18:11:37 65° WNW 18:16:11 14° SSW
Meteor 2-13 Rocket 4.4 18:06:35 10° NNW 18:12:42 76° W 18:18:49 10° S
AQUA 3.8 18:09:05 10° NNE 18:13:49 81° ESE 18:18:25 10° SSW
ARIANE 6 FM1 Upper Stage 2.5 18:11:45 19° SW 18:14:31 82° NW 18:18:31 10° NE
CZ-2C R/B 4.2 18:11:08 10° NE 18:15:35 30° E 18:20:03 10° SSE
SL-16 R/B 3.6 18:12:00 12° WSW 18:16:18 26° NW 18:21:00 10° N
Cosmos 2333 Rocket 3.1 18:15:43 14° WSW 18:20:03 36° NW 18:25:17 10° NNE
H-2A R/B 4.4 18:20:56 10° NNE 18:24:37 41° E 18:28:16 10° S
Meteor 2-4 Rocket 4.5 18:24:27 10° NNW 18:29:04 30° W 18:33:29 11° SSW
CENTAUR R/B 3.6 18:28:44 10° WSW 18:34:03 36° NW 18:40:36 10° NNE
Resurs 1-4 Rocket 3.3 18:29:56 10° N 18:34:25 29° WNW 18:38:47 10° WSW
Lacrosse 4 Rocket 3.3 18:31:13 10° SSE 18:34:34 25° ESE 18:38:00 10° NE
Cosmos 1437 Rocket 3.2 18:34:04 10° N 18:37:44 61° ENE 18:41:19 10° SSE
Cosmos 1805 3.3 18:34:54 11° SSW 18:38:02 48° WNW 18:41:25 10° N
NOSS 3-2 (C) 3.3 18:34:44 10° SSW 18:39:42 71° ESE 18:45:35 10° NE
SL-16 R/B 2.6 18:33:32 10° S 18:39:46 69° WSW 18:46:02 10° NNW
Cosmos 407 Rocket 4.3 18:35:32 10° NW 18:40:07 31° W 18:44:42 10° SSW
SeaSat 1 3.6 18:37:37 10° SSW 18:41:28 23° WSW 18:45:22 10° NW
TIMED 4.5 18:39:17 10° NNW 18:43:35 90° SW 18:47:51 10° SSE
Cosmos 1766 Rocket 3.8 18:39:41 10° S 18:43:56 69° E 18:48:14 10° NNE
COSMOS 2428 3.0 18:38:21 10° SSW 18:44:00 69° ESE 18:49:42 10° NNE
Cosmos 2237 Rocket 3.9 18:42:27 10° SSE 18:47:17 30° ESE 18:52:09 10° NE
METEOR-M 4.3 18:42:05 10° N 18:47:21 63° WNW 18:52:36 10° SSW
BREEZE-M DEB (TANK) 4.1 18:30:21 10° WNW 18:47:30 89° N 18:52:04 10° ESE
NOSS 3-2 (A) 3.8 18:43:52 10° WSW 18:48:45 45° NW 18:54:36 10° NNE
CZ-3 Stage 3 4.3 18:42:11 10° SW 18:49:03 42° SSE 19:13:39 10° E
Cosmos 2322 3.8 18:43:54 10° SSW 18:49:34 89° ESE 18:55:19 10° NNE
SL-8 Rocket 4.0 18:43:35 10° S 18:49:45 81° W 18:56:02 10° N
CZ-2D R/B 3.5 18:46:01 10° NNW 18:50:01 23° WNW 18:53:59 10° WSW
Cosmos 1844 Rocket 4.4 18:48:40 10° WNW 18:51:22 14° W 18:54:03 10° SW
OAO 3 Rocket 4.4 18:48:02 10° WSW 18:51:38 22° SSW 18:55:13 10° SE
NOSS 2-2 (E) 3.1 18:50:06 10° SSW 18:53:34 63° SE 18:56:37 10° NE
ALOS 3.6 18:50:43 10° NNW 18:54:21 24° WNW 18:57:57 10° WSW
SL-14 R/B 3.1 18:51:21 10° N 18:55:07 88° W 18:58:52 10° S
JB-3 4.2 18:51:52 10° SSE 18:55:37 85° W 18:59:28 10° NNW
Cosmos 1908 4.2 18:54:23 10° SSE 18:57:21 38° E 19:00:21 10° NNE
Cosmos 1607 4.4 18:52:00 10° NNW 18:58:10 69° NE 19:04:18 10° SE
